Погода в Ченцах

Россия / Костромская область     57°40′19″N   41°19′01″E
темп.,
°C
ветер,
м/с
пор.,
м/с
влажн.,
%
обл.,
%
осадки,
мм/ч
давл.,
гПа
погр.,
м
13 апреля, вт
вт1300:00+7юв51495100 0.1 1032460
03:00+6юв41197100 0.1 1031388
06:00+5юв4109760 0.0 1030272
09:00+10ююв41083100 0.0 1028316
12:00+15ю51064100 0.0 1027590
15:00+18ю5950100 0.0 10261398
18:00+14ююв3962100 0.0 1024209
21:00+10ююв3117789 0.0 1025192
14 апреля, ср
ср1400:00+8ююв3117445 0.0 1025172
03:00+7ююв311772 0.0 1024182
06:00+7ююв310795 0.0 1024175
09:00+12ю4105962 0.0 1023361
12:00+16ю5846100 0.0 1022787
15:00+17ю4742100 0.0 10201290
18:00+15ююв2555100 0.0 101984
21:00+11ююв3668100 0.0 102092
15 апреля, чт
чт1500:00+9ю227197 0.0 101935
03:00+8ю2275100 0.0 101910
06:00+7з0076100 0.0 101910
09:00+12вюв0159100 0.0 1019215
12:00+16ссв224998 0.0 1019708
15:00+16ссв4453100 0.0 10191178
18:00+10ссв51078100 0.0 1020432
21:00+7св5128464 0.0 1022481
16 апреля, пт
пт1600:00+5св4118779 0.0 1022471
03:00+5св41083100 0.0 1023473
06:00+4св4108699 0.0 1024470
09:00+7св576716 0.0 1024662
12:00+10св56465 0.0 10251173
15:00+11св563448 0.0 10251438
18:00+10св4743100 0.0 1026799
21:00+5св3116162 0.0 1028284
17 апреля, сб
сб1700:00+3св311655 0.0 1029301
03:00+1ссв39750 0.0 1030174
06:00+1св310745 0.0 1031272
09:00+6св57605 0.0 1032786
12:00+8св57343 0.0 10331455
15:00+9св46305 0.0 10331655
18:00+8св463981 0.0 1033933
21:00+3св255935 0.0 103488